www.pogodaiklimat.ru

Погода и климат >> Архив погоды >> Сербия >> Велико-Градиште


ПОГОДА в Велико-Градиште

  • Прогноз погоды в Велико-Градиште
  • Монитор погоды в Велико-Градиште

АРХИВ ПОГОДЫ в Велико-Градиште

Время (UTC), дата Ветер
(напр.,м/с)
 
Видим.   Явления Облачность Т
(С)
Тd
(С)
f
(%)
Тe
(С)
Тes
(С)
Комфортность P
(гПа)
Po
(гПа)
Тmin
(С)
Tmax
(С)
R
(мм)
R24
(мм)
S
(см)
19 10.08 С 1 20 км ясно +21.8 +17.7 78 +26 +26 душно 1015.8 1006.0
20 10.08 В 2 20 км ясно +21.0 +18.7 87 +26 +26 душно 1015.2 1005.4
21 10.08 В 2 20 км ясно +20.0 +18.3 90 +24 +24 комфорт 1015.3 1005.5
22 10.08 штиль 0 20 км ясно +18.3 +16.6 90 +19 +19 1015.4 1005.5
23 10.08 В 2 20 км ясно +17.7 +16.6 93 +18 +18 1015.4 1005.5
00 11.08 В 1 20 км ясно +18.1 +17.1 94 +19 +19 1015.4 1005.5
01 11.08 В 2 20 км ясно +17.5 +16.5 94 +18 +18 1015.4 1005.5
02 11.08 В 2 20 км ясно +17.7 +16.6 93 +18 +18 1015.5 1005.6
03 11.08 В 2 20 км ясно +17.6 +16.6 94 +18 +18 1015.5 1005.6
04 11.08 В 1 20 км ясно +17.8 +17.1 96 +19 +19 1015.8 1005.9
05 11.08 ЮВ 2 20 км ясно +21.3 +20.2 93 +26 +28 душно 1016.1 1006.3
06 11.08 ЮВ 2 20 км ясно +23.9 +22.6 92 +31 +35 очень
душно
1015.8 1006.1 +17.0
07 11.08 В 1 20 км ясно +27.1 +24.1 84 +38 +47 очень
душно
1015.6 1006.1
08 11.08 В 1 20 км ясно +30.1 +20.0 55 +37 +50 очень
душно
1015.6 1006.1
09 11.08 ЮВ 3 20 км ясно +31.1 +19.5 50 +37 +49 очень
душно
1016.1 1006.6
10 11.08 Ю 1 20 км ясно +33.5 +16.5 36 +36 +55 опасность
солнечного
удара
1015.8 1006.4
11 11.08 З 1 20 км ясно +34.6 +15.8 33 +37 +56 опасность
солнечного
удара
1015.7 1006.3
12 11.08 СЗ 1 20 км ясно +35.4 +13.4 27 +36 +53 опасность
солнечного
удара
1014.9 1005.6
13 11.08 С 1 20 км ясно +36.4 +13.8 26 +37 +51 опасность
солнечного
удара
1014.8 1005.5
14 11.08 З 1 20 км ясно +36.1 +13.1 25 +36 +46 очень
жарко
1014.3 1005.0
15 11.08 З 1 20 км ясно +36.6 +14.0 26 +37 +43 очень
жарко
1014.2 1004.9
16 11.08 З 1 20 км ясно +35.6 +14.0 27 +36 +38 очень
жарко
1013.9 1004.6
17 11.08 З 1 20 км ясно +33.3 +14.7 33 +35 +35 душно 1013.9 1004.5
18 11.08 З 1 20 км ясно +30.1 +14.7 39 +32 +32 жарко 1014.0 1004.5 +36.6
19 11.08 ЮЗ 1 20 км ясно +26.1 +17.0 57 +30 +30 душно 1014.6 1005.0
20 11.08 ЮВ 1 20 км ясно +23.8 +18.8 74 +29 +29 душно 1014.8 1005.1
21 11.08 В 1 20 км ясно +22.0 +19.0 83 +27 +27 душно 1014.8 1005.1
22 11.08 В 1 20 км ясно +21.0 +19.5 91 +27 +27 душно 1015.1 1005.3
23 11.08 В 1 20 км ясно +20.1 +19.2 95 +25 +25 комфорт 1015.1 1005.3
00 12.08 В 2 20 км ясно +19.5 +18.7 95 +23 +23 комфорт 1015.1 1005.3
01 12.08 В 1 20 км ясно +19.3 +18.4 95 +23 +23 комфорт 1015.1 1005.3
02 12.08 В 1 20 км ясно +19.0 +16.1 83 +21 +21 комфорт 1015.2 1005.3
03 12.08 В 1 20 км ясно +18.4 +17.8 96 +20 +20 1014.1 1005.2
04 12.08 В 1 20 км ясно +18.5 +17.7 95 +20 +21 1014.1 1005.2
05 12.08 СВ 1 20 км ясно +21.0 +20.0 94 +27 +29 душно 1015.0 1005.2
06 12.08 В 1 20 км ясно +25.5 +24.3 93 +35 +40 очень
душно
1014.8 1005.2 +17.7
07 12.08 ЮВ 2 20 км ясно +29.2 +20.4 59 +36 +43 очень
душно
1015.0 1005.5
08 12.08 ЮВ 4 20 км ясно +31.3 +18.2 46 +36 +44 очень
душно
1015.0 1005.6
09 12.08 ЮВ 5 20 км ясно +32.9 +16.4 37 +36 +43 очень
душно
1014.9 1005.5
10 12.08 В 5 20 км ясно +34.4 +15.4 32 +36 +45 душно 1014.6 1005.2
11 12.08 В 5 20 км ясно +34.8 +14.5 30 +36 +45 душно 1014.0 1004.7
12 12.08 В 6 20 км ясно +35.2 +14.3 29 +36 +42 очень
жарко
1013.5 1004.2
13 12.08 В 5 20 км ясно +35.8 +13.8 27 +37 +43 душно 1013.0 1003.7
14 12.08 В 6 20 км ясно +35.7 +13.5 26 +36 +39 очень
жарко
1012.5 1003.2
15 12.08 В 6 20 км ясно +35.7 +13.5 26 +36 +38 очень
жарко
1012.3 1003.0
16 12.08 В 5 20 км ясно +34.7 +12.7 27 +35 +36 очень
жарко
1011.9 1002.6
17 12.08 В 3 20 км ясно +32.5 +14.5 34 +34 +34 очень
жарко
1011.8 1002.4
18 12.08 В 1 20 км ясно +27.5 +19.2 61 +33 +33 очень
душно
1011.8 1002.3 +35.9
19 12.08 В 2 20 км ясно +25.6 +16.8 58 +29 +29 душно 1011.9 1002.3
20 12.08 ЮВ 3 20 км ясно +28.8 +15.3 44 +32 +32 душно 1011.9 1002.4
21 12.08 В 3 20 км ясно +28.2 +15.0 45 +31 +31 душно 1012.0 1002.5
22 12.08 В 3 20 км ясно +29.0 +14.8 42 +31 +31 жарко 1012.1 1002.6
23 12.08 В 3 20 км ясно +29.1 +14.5 41 +31 +31 жарко 1012.3 1002.8
00 13.08 В 4 20 км ясно +28.7 +14.1 41 +31 +31 жарко 1012.1 1002.6
01 13.08 В 3 20 км ясно +27.1 +14.8 47 +30 +30 душно 1012.1 1002.5
02 13.08 В 1 20 км ясно +22.9 +15.3 62 +27 +27 душно 1012.2 1002.5
03 13.08 СВ 1 20 км ясно +23.5 +14.5 57 +26 +26 жарко 1012.2 1002.5
04 13.08 В 2 20 км ясно +25.1 +18.8 68 +30 +30 душно 1011.9 1002.3
05 13.08 ЮВ 3 20 км ясно +26.4 +15.8 52 +30 +31 душно 1011.9 1002.3
06 13.08 ЮВ 2 20 км ясно +28.1 +15.3 46 +31 +35 душно 1011.8 1002.3 +22.5
07 13.08 В 4 20 км ясно +29.9 +13.5 37 +31 +36 жарко 1011.8 1002.3
08 13.08 ЮВ 4 20 км ясно +31.4 +13.6 34 +33 +40 жарко 1011.8 1002.4
09 13.08 В 5 20 км ясно +32.5 +13.5 32 +34 +41 очень
жарко
1011.9 1002.5
10 13.08 ЮВ 6 20 км ясно +33.5 +13.1 29 +34 +40 очень
жарко
1012.0 1002.6
11 13.08 В 7 20 км ясно +33.9 +13.0 28 +34 +39 очень
жарко
1011.4 1002.1
12 13.08 В 7
{12}
20 км ясно +34.5 +12.4 26 +35 +39 очень
жарко
1010.5 1001.5
13 13.08 В 6
{11}
20 км ясно +35.0 +13.0 27 +35 +40 очень
жарко
1010.6 1001.3
14 13.08 В 4 20 км ясно +35.2 +12.8 26 +35 +41 очень
жарко
1010.2 1000.9
15 13.08 В 5 20 км ясно +35.0 +11.8 25 +35 +37 очень
жарко
1009.8 1000.5
16 13.08 В 3 20 км ясно +33.6 +11.8 27 +34 +35 очень
жарко
1009.7 1000.4
17 13.08 В 3 20 км 4/0
[Cs]
+30.4 +11.1 30 +31 +31 жарко 1009.7 1000.3
18 13.08 В 1 20 км 5/0
[Cs]
+24.8 +14.1 51 +27 +27 жарко 1010.2 1000.6 +35.4
19 13.08 В 1 20 км 5/0
[Cs]
+24.0 +15.4 59 +27 +27 жарко 1010.7 1001.1
20 13.08 В 2 20 км 8/0
[Cs]
+22.0 +15.8 68 +26 +26 душно 1011.3 1001.6
21 13.08 В 1 20 км 8/0
[Cs]
+22.4 +17.0 72 +27 +27 душно 1010.7 1001.0
22 13.08 В 1 20 км 9/0
[Ac trans Cs]
+21.3 +17.5 79 +25 +25 комфорт 1010.8 1001.1
23 13.08 ЮЗ 1 20 км 6/0
[Ac trans Ci fib]
+20.1 +17.1 83 +24 +24 комфорт 1009.8 1000.0
00 14.08 штиль 0 20 км 8/0
[Ac As]
+20.0 +17.6 86 +23 +23 комфорт 1010.0 1000.2
01 14.08 З 2 20 км 6/0
[Ac As]
+21.2 +18.3 84 +25 +25 комфорт 1010.2 1000.5
03 14.08 штиль 0 20 км 1/0
[Ac trans]
+18.6 +17.4 93 +20 +20 1010.4 1000.6
06 14.08 З 2 20 км 1/1 1000 м
[Cu hum]
+22.0 +20.4 91 +28 +32 душно 1011.2 1001.5 +16.6
07 14.08 З 3 20 км 4/4 1000 м
[Cu Sc]
+23.4 +20.9 86 +31 +35 очень
душно
1011.6 1001.9
08 14.08 З 2 20 км 8/8 1000 м
[Cu Sc]
+23.7 +21.0 85 +30 +32 очень
душно
1012.5 1002.9
09 14.08 З 2 20 км 9/9 1000 м
[Sc]
+22.0 +19.5 86 +28 +29 душно 1013.6 1003.9
10 14.08 СЗ 1 20 км 9/9 1000 м
[Sc]
+21.0 +18.7 87 +27 +29 душно 1014.1 1004.4
11 14.08 С 1 20 км 9/9 1000 м
[Sc]
+21.7 +19.5 87 +27 +29 душно 1014.2 1004.5
12 14.08 штиль 0 20 км 9/9 1000 м
[Sc]
+22.2 +19.6 85 +28 +30 душно 1013.9 1004.2
13 14.08 З 2 20 км 9/9 1000 м
[Sc]
+22.2 +19.6 85 +28 +29 душно 1013.3 1003.6
14 14.08 З 2 20 км 9/9 1000 м
[Sc]
+22.4 +20.0 86 +29 +29 очень
душно
1013.3 1003.6
15 14.08 З 1 20 км 10/10 1000 м
[Sc]
+22.3 +20.0 87 +28 +28 душно 1013.3 1003.6
16 14.08 СЗ 1 20 км 10/10 1000 м
[Sc]
+21.4 +19.2 87 +26 +26 душно 1013.4 1003.7
17 14.08 СЗ 1 20 км 10/10 1000 м
[Sc]
+20.3 +18.0 87 +25 +25 комфорт 1014.3 1004.5
18 14.08 З 1 20 км слаб. дождь 10/10 1000 м
[Sc]
+18.5 +17.7 95 +20 +20 1014.8 1004.9 +24.2 0.4
19 14.08 З 1 20 км слаб. дождь 10/10 1000 м
[Sc]
+18.1 +17.3 95 +19 +19 1015.3 1005.4
20 14.08 штиль 0 20 км слаб. дождь 10/10 1000 м
[Sc]
+17.8 +17.1 96 +18 +18 1015.4 1005.5
21 14.08 З 1 20 км слаб. дождь 10/10 1000 м
[Sc]
+17.0 +16.2 95 +18 +18 1015.3 1005.4
22 14.08 З 2 20 км в посл. час дождь 10/10 1000 м
[Sc]
+17.2 +16.4 95 +18 +18 1015.5 1005.6
23 14.08 З 1 20 км 10/10 1000 м
[Sc]
+17.3 +16.5 95 +18 +18 1015.4 1005.5
00 15.08 З 1 20 км {дождь} 10/10 1000 м
[Sc]
+17.3 +16.5 95 +18 +18 1015.0 1005.1 0.7
01 15.08 З 1 20 км 10/10 1000 м
[Sc]
+17.6 +16.9 96 +19 +19 1014.7 1004.8
02 15.08 З 1 20 км 10/10 1000 м
[Sc]
+17.6 +16.9 96 +19 +19 1014.5 1004.6
03 15.08 С 1 20 км 10/10 1000 м
[Sc]
+16.9 +16.1 95 +18 +18 1014.7 1004.8
04 15.08 С 1 20 км 10/10 1000 м
[Sc]
+16.7 +16.0 96 +18 +18 1014.9 1005.0
05 15.08 штиль 0 20 км 10/10 1000 м
[Sc]
+16.6 +15.8 95 +16 +16 1015.1 1005.2
06 15.08 З 1 20 км 8/8 1000 м
[Cu Sc]
+18.0 +16.3 90 +19 +20 1015.1 1005.2 +16.4 0.7
07 15.08 З 1 20 км 8/8 1000 м
[Cu Sc]
+18.0 +15.8 87 +19 +21 1015.1 1005.2
08 15.08 С 1 20 км 8/8 1000 м
[Cu Sc]
+20.2 +17.5 84 +24 +27 комфорт 1015.0 1005.2
09 15.08 С 1 20 км 3/3 1000 м
[Cu hum]
+21.7 +13.1 58 +24 +36 комфорт 1015.3 1005.5
10 15.08 СЗ 2 20 км 4/4 1000 м
[Cu med, cong]
+22.4 +11.8 51 +25 +34 комфорт 1015.4 1005.6
11 15.08 С 1 20 км 3/3 1000 м
[Cu med, cong]
+22.9 +12.0 50 +25 +39 комфорт 1014.7 1005.0
12 15.08 С 2 20 км 3/3 1000 м
[Cu med, cong]
+25.0 +11.8 44 +27 +37 жарко 1014.0 1004.4
13 15.08 СЗ 1 20 км 3/3 1000 м
[Cu med, cong]
+25.8 +10.3 38 +27 +36 жарко 1013.4 1003.8
14 15.08 СЗ 1 20 км 3/3 1000 м
[Cu med, cong]
+26.5 +9.4 34 +27 +33 жарко 1013.3 1003.7
15 15.08 СЗ 1 20 км 3/3 1000 м
[Cu med, cong]
+26.5 +9.4 34 +27 +30 жарко 1012.9 1003.3
16 15.08 СЗ 1 20 км 3/3 1000 м
[Cu med, cong]
+25.2 +9.7 38 +26 +27 жарко 1012.5 1002.9
17 15.08 СЗ 1 20 км 1/1 1000 м
[Cu hum]
+23.9 +9.7 41 +25 +25 комфорт 1012.6 1002.9
18 15.08 штиль 0 20 км ясно +21.2 +8.5 44 +22 +22 комфорт 1013.6 1003.8 +26.6
19 15.08 З 1 20 км ясно +19.4 +9.4 52 +21 +21 комфорт 1014.1 1004.3
20 15.08 З 1 20 км ясно +18.4 +11.2 63 +20 +20 1014.6 1004.7
21 15.08 З 2 20 км ясно +18.4 +10.9 62 +19 +19 1014.8 1004.9
22 15.08 З 1 20 км ясно +14.9 +12.0 83 +15 +15 1014.9 1004.9
23 15.08 штиль 0 20 км ясно +12.5 +10.8 89 +12 +12 1015.0 1004.9
00 16.08 З 1 20 км ясно +11.8 +10.3 91 +12 +12 1015.0 1004.9
01 16.08 ЮВ 1 20 км ясно +10.6 +9.7 94 +10 +10 1015.5 1005.4
02 16.08 штиль 0 20 км ясно +10.2 +9.5 95 +9 +9 1015.8 1005.6
03 16.08 ЮВ 1 20 км ясно +10.3 +9.5 95 +10 +10 1015.8 1005.6
04 16.08 штиль 0 20 км ясно +9.0 +8.3 95 +8 +8 1015.8 1005.6
05 16.08 штиль 0 20 км 1/1 1000 м
[Cu hum]
+10.8 +10.2 96 +10 +12 1016.1 1006.0
06 16.08 штиль 0 20 км 1/0
[Ac trans]
+14.8 +13.8 94 +14 +19 1016.2 1006.2 +8.4
07 16.08 З 1 20 км ясно +18.1 +16.2 89 +19 +28 1016.1 1006.2
08 16.08 З 1 20 км 1/1 1000 м
[Cu hum]
+21.2 +15.7 71 +24 +36 комфорт 1016.0 1006.2
09 16.08 С 2 20 км 1/0
[]
+23.9 +13.4 52 +26 +39 жарко 1015.9 1006.2
10 16.08 СЗ 1 20 км 3/3 1000 м
[Cu hum]
+24.3 +12.5 48 +26 +39 жарко 1015.7 1006.0
11 16.08 С 3 20 км 4/4 1000 м
[Cu med, cong]
+26.0 +11.5 40 +27 +35 жарко 1015.5 1005.9
12 16.08 С 2 20 км 8/8 1000 м
[Cu Sc]
+26.0 +10.2 37 +27 +30 жарко 1015.2 1005.6
13 16.08 СЗ 1 20 км 5/5 1000 м
[Cu Sc]
+25.9 +9.8 36 +27 +33 жарко 1014.9 1005.3
14 16.08 С 1 20 км 8/8 1000 м
[Cu Sc]
+25.3 +9.2 36 +26 +28 жарко 1014.9 1005.2
15 16.08 штиль 0 20 км 6/6 1000 м
[Cu Sc]
+25.8 +9.0 35 +26 +28 жарко 1014.7 1005.1
16 16.08 штиль 0 20 км 8/8 1000 м
[Cu Sc]
+24.3 +10.2 41 +25 +26 комфорт 1014.8 1005.1
17 16.08 штиль 0 20 км 8/8 1000 м
[Sc]
+23.6 +12.3 49 +25 +25 комфорт 1014.8 1005.1
18 16.08 штиль 0 20 км 8/8 1000 м
[Sc]
+22.0 +12.1 53 +24 +24 комфорт 1015.0 1005.2 +26.8
19 16.08 С 1 20 км 6/6 1000 м
[Sc]
+21.7 +12.4 55 +24 +24 комфорт 1015.4 1005.6
20 16.08 штиль 0 20 км 5/5 1000 м
[Sc]
+20.1 +13.5 66 +22 +22 комфорт 1016.0 1006.2
21 16.08 штиль 0 20 км 5/5 1000 м
[Sc]
+19.2 +14.0 72 +20 +20 1016.5 1006.6
22 16.08 ЮЗ 2 20 км 4/4 1000 м
[Sc]
+19.3 +15.5 79 +22 +22 комфорт 1016.5 1006.6
23 16.08 З 1 20 км 4/4 1000 м
[Sc]
+17.1 +15.4 90 +18 +18 1016.5 1006.6
00 17.08 З 1 20 км ясно +15.6 +14.7 94 +16 +16 1016.6 1006.6
01 17.08 В 2 20 км ясно +13.5 +12.7 95 +13 +13 1016.6 1006.6
02 17.08 штиль 0 20 км ясно +12.3 +11.4 94 +12 +12 1016.7 1006.6
03 17.08 В 1 20 км ясно +12.0 +11.1 94 +12 +12 1016.8 1006.7
04 17.08 В 1 20 км 3/3 1000 м
[Sc]
+11.5 +10.8 95 +11 +11 1017.3 1007.2
05 17.08 В 1 20 км ясно +12.5 +11.7 95 +12 +14 1017.3 1007.2
06 17.08 ЮВ 1 20 км 1/0
[Ac trans]
+17.0 +16.2 95 +18 +22 1018.0 1008.1 +10.7
07 17.08 З 1 20 км 1/0
[Ac trans]
+19.4 +17.6 89 +23 +30 комфорт 1018.3 1008.5
08 17.08 СЗ 1 20 км 1/1 1000 м
[Cu hum]
+21.8 +18.2 80 +27 +38 душно 1018.5 1008.7
09 17.08 З 1 20 км 3/3 1000 м
[Cu hum]
+24.0 +17.2 66 +28 +39 душно 1018.2 1008.5
10 17.08 З 1 20 км 4/4 1000 м
[Cu med, cong]
+25.0 +15.8 57 +28 +39 жарко 1017.8 1008.1
11 17.08 З 1 20 км 5/5 1000 м
[Cu med, cong]
+27.0 +15.4 49 +30 +39 душно 1017.1 1007.5
12 17.08 З 1 20 км 4/4 1000 м
[Cu med, cong]
+27.4 +12.8 40 +29 +39 жарко 1016.6 1007.0
13 17.08 З 2 20 км 6/4 1000 м
[Cu med, cong Ci fib]
+27.8 +12.1 38 +29 +35 жарко 1016.1 1006.5
14 17.08 З 2 20 км 6/3 1000 м
[Cu med, cong Cs]
+28.4 +12.1 36 +29 +34 жарко 1015.8 1006.2
15 17.08 З 2 20 км 6/3 1000 м
[Cu med, cong Cs]
+27.4 +11.1 36 +28 +31 жарко 1015.7 1006.1
16 17.08 З 1 20 км 9/1 1000 м
[Cu hum Ac lent Cs]
+26.8 +12.1 40 +28 +29 жарко 1015.6 1006.0
17 17.08 штиль 0 20 км 5/1 1000 м
[Cu hum Ac trans Ci fib]
+25.6 +11.5 41 +27 +27 жарко 1015.6 1006.0
18 17.08 штиль 0 20 км 3/0
[Ci fib]
+22.7 +14.7 61 +26 +26 жарко 1015.7 1006.0 +28.9
19 17.08 штиль 0 20 км ясно +18.9 +15.3 80 +20 +20 1016.0 1006.1
20 17.08 З 1 20 км ясно +15.7 +14.4 92 +16 +16 1016.4 1006.4

 

Местоположение метеостанции Велико-Градиште (Сербия): широта 44.75 долгота 21.52 высота над уровнем моря 84 м.

В архиве по умолчанию представлена погода в Велико-Градиште за последнюю неделю. Архивные данные за месяц целиком и за предыдущие месяцы, начиная с января 2011 года, Вы можете получить, выбрав интересующий диапазон дат из раскрывающегося списка и нажав кнопку "Ввод!".


*Определитесь, кто Вы:
робот инопланетянин человек

Внимание! Время в таблицах - всемирное. Для получения местного времени необходимо прибавить поправку, которая равна 1 ч.

Смотрите также архив погоды в соседних городах и на ближайших метеорологических станциях:

Погода в Молдова-Вече (Румыния) (9 км)
Погода в Оравице (Румыния) (34 км)
Погода в Божовичах (Румыния) (43 км)
Погода в Вршаце (Сербия) (47 км)
Погода в Банатски-Карловаце (Сербия) (51 км)
Погода в Смедеревска-Паланке (Сербия) (62 км)
Погода в Семениче (Румыния) (63 км)
Погода в Решице (Румыния) (69 км)
Погода в Бэиле-Еркулане (Румыния) (72 км)
Погода в Банлоке (Румыния) (76 км)

Пояснения к столбцам:

Ветер - указаны скорость ветра в м/с - средняя за 10 мин, порывы в срок и между сроками (в фигурных скобках) и направление, откуда дует ветер: С - северный, СВ - северо-восточный, В - восточный, ЮВ - юго-восточный, Ю - южный, ЮЗ - юго-западный, З - западный, СЗ - северо-западный.
Видимость - горизонтальная дальность видимости в метрах или километрах. При видимости от 1 до 10 км при отсутствии осадков обычно наблюдается дымка, при ухудшении видимости до 1 км и менее - туман. В сухую погоду видимость может ухудшаться дымом, пылью или мглою.
Явления - указаны атмосферные явления, наблюдавшиеся в срок или в последний час перед сроком; фигурными скобками обозначены явления, наблюдавшиеся между сроками (за 1-3 часа до срока); квадратными скобками обозначены град или гололедные отложения с указанием их диаметра в мм.
Облачность - указаны через наклонную черту общая и нижняя облачность в баллах и высота нижней границы облаков в метрах; квадратными скобками обозначены формы облаков: Ci - перистые, Cs - перисто-слоистые, Cc - перисто-кучевые, Ac - высококучевые, As - высокослоистые, Sc - слоисто-кучевые, Ns - слоисто-дождевые, Cu - кучевые, Cb - кучево-дождевые. Подробнее классификацию облаков см. в Атласе облаков (PDF).
T - Температура воздуха - температура, измеренная на высоте 2 м над землей.
Td - Температура точки росы - температура, при понижении до которой содержащийся в воздухе водяной пар достигнет насыщения.
f - Относительная влажность воздуха - влажноcть воздуха, измеренная на высоте 2 м над землей.
Te - Эффективная температура - температура, которую ощущает одетый по сезону человек в тени. Характеристика душности погоды. При расчете учитывается влияние влажности воздуха и скорости ветра на теплоощущения человека.
Tes - Эффективная температура на солнце - температура, которую ощущает человек, с поправкой на солнечный нагрев. Характеристика знойности погоды. Зависит от высоты солнца над горизонтом, облачности и скорости ветра. Ночью, в пасмурную погоду, а также при ветре 12 м/с и более поправка равна нулю.
P - Атмосферное давление - приведенное к уровню моря атмосферное давление.
Po - Атмосферное давление - измеренное на уровне метеостанции атмосферное давление.
Tmin - Минимальная температура - минимум температуры воздуха на высоте 2 м над землей.
Tmax - Максимальная температура - максимум температуры воздуха на высоте 2 м над землей.
R - Количество осадков - Количество выпавших осадков за период времени, мм. При наведении курсора мыши на число - период времени, за который выпало указанное количество осадков.
R24 - Количество осадков - Количество выпавших осадков за 24 часа, мм.
S - Снежный покров - Высота снежного покрова, см. При наведении курсора мыши на число - состояние снежного покрова и степень покрытия местности в баллах.